Voltar ao catálogo

YAOGAN-35 04B

AtivoMilitarVLEO
NORAD 53524·PAYLOAD·🇨🇳 China

Lançado Aug 19, 2022 de Xichang Satellite Launch Center

Loading…

Próximas Passagens (próximas 24 horas)

TLE

AtualizadoSource: Space-Track

Época: Sep 14, 2026, 04:36 UTC

1 53524U 22100C   26257.19201104  .00011905  00000-0  31285-3 0  9992
2 53524  35.0006 175.3804 0003564 357.7629   2.3074 15.37762501118935

Acompanhe YAOGAN-35 04B em tempo real com AllMySat

Download on the App Store